User: anonymous   Login
Location: Sawmill Trailhead
(33.5800°N, 116.4497°W)
Time: 17:34:20
(UTC-07:00)
Language:

Uosat F - Orbit

View from above orbital plane
View from above orbital plane
View from above satellite
View from above satellite

Ground track
Ground track

The orbit data is extracted from the following two-line orbital elements,

1 21575U 91050B   16212.54210009  .00000020  00000-0  20666-4 0  9994
2 21575  98.7618 215.1523 0007437 168.5728 191.5630 14.40750717314962
Epoch (UTC): 30 July 2016 13:00:37
Eccentricity: 0.0007437
inclination: 98.7618°
perigee height: 751 km
apogee height: 761 km
right ascension of ascending node: 215.1523°
argument of perigee: 168.5728°
revolutions per day: 14.40750717
mean anomaly at epoch: 191.5630°
orbit number at epoch: 31496

The dashed part of the orbit path shows where the satellite is in the earth's shadow,  

DLR